GW1675 Weather Reports


time (UTC)temp
C
wind
direction
speed
KPH
gust
KPH
rain 1hr
cm
rain 24hr
cm
rain mn
cm
humidity
%
barometer
mb
20260901070058 21 84 19.3 32.2 0.00 0.00 0.00 65 1018.6
20260901064552 20 78 16.1 30.6 0.00 0.00 0.00 64 1018.6
20260901063107 20 78 16.1 32.2 0.00 0.00 0.00 64 1018.5
20260901061557 20 75 16.1 35.4 0.00 0.00 0.00 64 1018.4
20260901060057 20 80 16.1 30.6 0.00 0.00 0.00 64 1018.5
20260901054554 20 84 12.9 32.2 0.00 0.00 0.00 64 1018.3
20260901053055 20 82 11.3 27.4 0.00 0.00 0.00 64 1018.3
20260901051614 20 82 11.3 24.1 0.00 0.00 0.00 64 1018.3
20260901050057 20 82 12.9 25.7 0.00 0.00 0.00 64 1018.5
20260901044552 20 81 12.9 25.7 0.00 0.00 0.00 64 1018.3
20260901043059 19 81 12.9 20.9 0.00 0.00 0.00 64 1018.3
20260901041555 19 81 4.8 16.1 0.00 0.00 0.00 64 1018.3
20260901040055 20 81 11.3 22.5 0.00 0.00 0.00 64 1018.4
20260901034609 20 81 9.7 17.7 0.00 0.00 0.00 64 1018.2
20260901033113 21 81 12.9 24.1 0.00 0.00 0.00 64 1018.3
20260901031603 21 81 14.5 25.7 0.00 0.00 0.00 65 1018.3
20260901030057 21 80 12.9 24.1 0.00 0.00 0.00 65 1018.2
20260901024555 21 79 12.9 24.1 0.00 0.00 0.00 64 1018.3
20260901023059 21 79 12.9 27.4 0.00 0.00 0.00 65 1018.3
20260901021559 21 78 14.5 25.7 0.00 0.00 0.00 65 1018.3
20260901020053 21 77 11.3 24.1 0.00 0.00 0.00 65 1018.4
20260901014601 21 76 11.3 24.1 0.00 0.00 0.00 65 1018.6
20260901013054 21 75 11.3 25.7 0.00 0.00 0.00 65 1018.9
20260901011556 21 75 11.3 17.7 0.00 0.00 0.00 65 1018.9
20260901010104 22 75 11.3 22.5 0.00 0.00 0.00 65 1018.8
20260901004616 22 75 11.3 20.9 0.00 0.00 0.00 65 1018.9
20260901003054 22 74 12.9 27.4 0.00 0.00 0.00 65 1019.0
20260901001559 23 73 12.9 25.7 0.00 0.00 0.00 65 1018.9
20260901000103 23 72 14.5 27.4 0.00 0.00 0.00 65 1019.0
20260831234603 23 72 16.1 30.6 0.00 0.00 0.00 65 1019.1
20260831233057 23 72 14.5 25.7 0.00 0.00 0.00 65 1019.1
20260831231600 23 70 17.7 29.0 0.00 0.00 0.00 65 1018.9
20260831230050 24 69 20.9 29.0 0.00 0.00 0.00 66 1019.0
20260831224604 24 70 19.3 32.2 0.00 0.00 0.00 66 1018.8
20260831223047 25 75 16.1 30.6 0.00 0.00 0.00 66 1018.9
20260831221556 25 79 17.7 32.2 0.00 0.00 0.00 66 1018.9
20260831220050 25 87 17.7 29.0 0.00 0.00 0.00 66 1018.9
20260831214559 26 96 14.5 24.1 0.00 0.00 0.00 66 1018.9
20260831213054 26 103 14.5 24.1 0.00 0.00 0.00 66 1019.0
20260831211554 26 152 9.7 19.3 0.00 0.00 0.00 66 1019.0
20260831210100 27 156 9.7 14.5 0.00 0.00 0.00 67 1018.8
20260831204556 27 157 8.0 14.5 0.00 0.00 0.00 67 1018.6
20260831203102 24 158 4.8 8.0 0.00 0.00 0.00 66 1018.5
20260831201551 23 0 0.0 3.2 0.00 0.00 0.00 66 1018.3
20260831194628 25 158 0.0 1.6 0.00 0.00 0.00 66 1017.9
20260831193057 25 0 0.0 0.0 0.00 0.00 0.00 66 1017.6
20260831191552 26 0 0.0 3.2 0.00 0.00 0.00 67 1017.6
20260831190122 27 158 1.6 3.2 0.00 0.00 0.00 67 1017.4
20260831184602 27 158 3.2 6.4 0.00 0.00 0.00 67 1017.4
20260831183052 28 158 4.8 9.7 0.00 0.00 0.00 67 1017.3
20260831181600 28 158 6.4 16.1 0.00 0.00 0.00 68 1017.3
20260831180055 28 158 11.3 16.1 0.00 0.00 0.00 68 1017.3
20260831174634 29 158 9.7 20.9 0.00 0.00 0.00 68 1017.4
20260831173057 29 155 9.7 16.1 0.00 0.00 0.00 68 1017.4
20260831171554 30 156 6.4 14.5 0.00 0.00 0.00 68 1017.4
20260831170100 30 156 9.7 19.3 0.00 0.00 0.00 68 1017.3
20260831164558 30 156 8.0 16.1 0.00 0.00 0.00 68 1017.4
20260831163055 31 158 8.0 19.3 0.00 0.00 0.00 69 1017.4
20260831161553 31 158 8.0 16.1 0.00 0.00 0.00 69 1017.4
20260831160059 30 158 14.5 20.9 0.00 0.00 0.00 69 1017.6
20260831154616 30 153 9.7 20.9 0.00 0.00 0.00 69 1017.7
20260831153108 30 148 9.7 20.9 0.00 0.00 0.00 69 1017.9
20260831151549 30 139 14.5 24.1 0.00 0.00 0.00 69 1018.1
20260831144559 29 110 9.7 20.9 0.00 0.00 0.00 69 1018.3
20260831143103 29 104 9.7 19.3 0.00 0.00 0.00 69 1018.4
20260831141558 29 103 9.7 17.7 0.00 0.00 0.00 69 1018.4
20260831140054 28 102 8.0 17.7 0.00 0.00 0.00 69 1018.5
20260831134611 28 102 11.3 17.7 0.00 0.00 0.00 69 1018.5
20260831133103 28 102 6.4 17.7 0.00 0.00 0.00 69 1018.7
20260831131558 27 101 8.0 19.3 0.00 0.00 0.00 69 1018.9
20260831130101 27 101 11.3 19.3 0.00 0.00 0.00 69 1019.2
20260831124556 26 98 11.3 22.5 0.00 0.00 0.00 68 1019.2
20260831123055 26 91 11.3 20.9 0.00 0.00 0.00 69 1019.3
20260831121617 26 89 9.7 20.9 0.00 0.00 0.00 69 1019.4
20260831114556 26 87 8.0 17.7 0.00 0.00 0.00 68 1019.5
20260831113105 25 86 8.0 16.1 0.00 0.00 0.00 68 1019.7
20260831111550 25 86 8.0 19.3 0.00 0.00 0.00 68 1019.9
20260831110100 25 86 11.3 16.1 0.00 0.00 0.00 68 1020.1
20260831104559 25 86 11.3 19.3 0.00 0.00 0.00 68 1020.2
20260831103055 25 84 8.0 17.7 0.00 0.00 0.00 69 1020.2
20260831101604 25 84 11.3 20.9 0.00 0.00 0.00 69 1020.1
20260831094605 26 82 9.7 16.1 0.00 0.00 0.00 69 1020.0
20260831093139 27 82 8.0 14.5 0.00 0.00 0.00 69 1019.6
20260831091559 26 82 9.7 14.5 0.00 0.00 0.00 69 1019.6
20260831090101 26 82 8.0 14.5 0.00 0.00 0.00 69 1019.5
20260831084639 25 82 4.8 12.9 0.00 0.00 0.00 69 1019.4
20260831083051 24 82 9.7 19.3 0.00 0.00 0.00 69 1019.3
20260831081602 23 82 12.9 22.5 0.00 0.00 0.00 69 1019.3
20260831080121 23 82 9.7 17.7 0.00 0.00 0.00 69 1019.3
20260831074557 23 82 6.4 17.7 0.00 0.00 0.00 68 1019.2
20260831073101 23 82 4.8 8.0 0.00 0.00 0.00 68 1019.2
20260831071601 22 82 0.0 8.0 0.00 0.00 0.00 68 1019.1